Voltar ao catálogo

FENGYUN 1C DEB

AtivoSSO
NORAD 31256·DEBRIS·🇨🇳 China

Lançado May 10, 1999 de Taiyuan Satellite Launch Center

Loading…

Próximas Passagens (próximas 24 horas)

TLE

AtualizadoSource: Space-Track

Época: Sep 11, 2026, 11:59 UTC

1 31256U 99025BMN 26254.49976562  .00003327  00000-0  13446-2 0  9994
2 31256  98.6613  95.7227 0302275  65.2652 297.9658 14.06511384688123

Acompanhe FENGYUN 1C DEB em tempo real com AllMySat

Download on the App Store